Regional Weather Roundup
Issued by NWS Cleveland, OH

Home | Current Version | Previous Version | Text Only | Print | Product List | Glossary Off
Versions: 1 2 3 4 5 6 7 8 9 10 11 12 13 14 15 16 17 18 19 20 21 22 23 24 25 26 27 28 29 30 31 32 33 34 35 36 37 38 39 40 41 42 43 44 45 46 47 48 49 50

000
ASUS41 KCLE 310302
RWRCLE
OHIO REGIONAL WEATHER ROUNDUP
NATIONAL WEATHER SERVICE CLEVELAND, OH
1100 PM EDT SAT AUG 30 2014

NOTE: "FAIR" INDICATES FEW OR NO CLOUDS BELOW 12,000 FEET WITH NO
SIGNIFICANT WEATHER AND/OR OBSTRUCTIONS TO VISIBILITY.

OHZ001>008-015>018-024>027-034-035-043-044-310400-
   NORTHWEST OHIO

CITY           SKY/WX    TMP DP  RH WIND       PRES   REMARKS
DEFIANCE       CLOUDY    77  68  73 SW12      29.95S
FINDLAY        CLOUDY    77  69  76 SW10      29.98R
TOLEDO EXPRESS CLOUDY    77  68  73 SW14G20   29.95S
TOLEDO EXEC    CLOUDY    77  67  71 SW9       29.96F
LIMA           CLOUDY    77  69  76 S12       30.00S
$$

OHZ009>014-019>023-028>033-038-089-310400-
   NORTHEAST OHIO

CITY           SKY/WX    TMP DP  RH WIND       PRES   REMARKS
CLE-HOPKINS    LGT RAIN  78  67  68 SW10      30.00S
CLE-LAKEFRONT  CLOUDY    83  66  56 S13G20    29.96R
CUY CO. ARPT   CLOUDY    81  70  69 SW8       29.99S
LORAIN-ELYRIA  CLOUDY    80  67  64 SW9       29.99S
ASHTABULA      MOCLDY    78  66  66 SW8       30.00S
AKRON-CANTON   CLOUDY    80  65  59 SW10      30.03S
WOOSTER        CLOUDY    77  66  68 SW8       30.04R
MANSFIELD      CLOUDY    76  67  73 SW14G25   30.03S
YOUNGSTOWN     CLOUDY    78  66  66 S7        30.03S
$$

OHZ042-051>053-060>062-070>072-077>081-310400-
  SOUTHWEST OHIO

CITY           SKY/WX    TMP DP  RH WIND       PRES   REMARKS
CINC-COVINGTON CLOUDY    72  68  87 S6        30.05F
CINC-LUNKEN    CLOUDY    71  70  96 CALM      30.05S
HAMILTON       CLOUDY    73  71  93 CALM      30.05S
DAYTON         CLOUDY    75  68  78 SW10      30.05S
WRIGHT-PAT AFB CLOUDY    74  70  87 S8        30.04S
DAYTON GENERAL CLOUDY    73  70  90 SW7       30.05S
WILMINGTON     LGT RAIN  70  67  90 SW7       30.06R
$$

OHZ036-037-039>041-045>050-054>059-063>069-073>076-082>088-310400-
  CENTRAL AND SOUTHEAST OHIO

CITY           SKY/WX    TMP DP  RH WIND       PRES   REMARKS
COLUMBUS       LGT RAIN  79  67  66 SW8       30.04S
OSU AIRPORT    LGT RAIN  75  67  76 SW7       30.04S
BOLTON FIELD   LGT RAIN  73  69  87 W6        30.05S
RICKENBACK AFB CLOUDY    75  65  71 SW6       30.04R
NEWARK         CLOUDY    75  66  73 SW7       30.04S
MARION         CLOUDY    74  68  81 SW13      30.02S
LANCASTER      CLOUDY    74  68  81 CALM      30.05S
ZANESVILLE     CLOUDY    78  66  66 SW3       30.04S
NEW PHILLY     CLOUDY    75  69  81 CALM      30.04R
$$



USA.gov is the U.S. government's official web portal to all federal, state and local government web resources and services.